TimeCDT,TemperatureF,Dew PointF,Humidity,Sea Level PressureIn,VisibilityMPH,Wind Direction,Wind SpeedMPH,Gust SpeedMPH,PrecipitationIn,Events,Conditions,WindDirDegrees,DateUTC
12:51 AM,53.1,46.9,80,30.01,10.0,Calm,Calm,-,N/A,,Clear,0,2013-09-30 05:51:00
1:51 AM,52.0,48.0,86,30.01,10.0,Calm,Calm,-,N/A,,Clear,0,2013-09-30 06:51:00
2:51 AM,53.1,46.9,80,29.99,10.0,Calm,Calm,-,N/A,,Clear,0,2013-09-30 07:51:00
3:51 AM,52.0,46.9,83,29.99,10.0,Calm,Calm,-,N/A,,Clear,0,2013-09-30 08:51:00
4:44 AM,51.8,46.4,82,30.00,10.0,Calm,Calm,-,N/A,,Partly Cloudy,0,2013-09-30 09:44:00
4:51 AM,50.0,46.0,86,30.00,10.0,WNW,3.5,-,N/A,,Partly Cloudy,290,2013-09-30 09:51:00
5:51 AM,51.1,46.0,83,30.00,10.0,Calm,Calm,-,N/A,,Clear,0,2013-09-30 10:51:00
6:51 AM,51.1,46.9,86,30.00,10.0,Calm,Calm,-,N/A,,Mostly Cloudy,0,2013-09-30 11:51:00
7:51 AM,53.1,48.0,83,30.01,10.0,Calm,Calm,-,N/A,,Scattered Clouds,0,2013-09-30 12:51:00
8:51 AM,57.9,50.0,75,30.01,10.0,SSW,3.5,-,N/A,,Scattered Clouds,210,2013-09-30 13:51:00
9:51 AM,63.0,51.1,65,30.00,10.0,Variable,5.8,-,N/A,,Partly Cloudy,0,2013-09-30 14:51:00
10:51 AM,66.0,50.0,56,29.99,10.0,South,9.2,-,N/A,,Scattered Clouds,170,2013-09-30 15:51:00
11:51 AM,68.0,46.9,47,29.97,10.0,South,8.1,-,N/A,,Scattered Clouds,170,2013-09-30 16:51:00
12:51 PM,70.0,46.0,42,29.95,10.0,SSE,6.9,-,N/A,,Mostly Cloudy,160,2013-09-30 17:51:00
1:51 PM,72.0,43.0,35,29.92,10.0,SSW,4.6,-,N/A,,Mostly Cloudy,200,2013-09-30 18:51:00
2:51 PM,73.9,41.0,30,29.90,10.0,SSW,8.1,-,N/A,,Mostly Cloudy,200,2013-09-30 19:51:00
3:51 PM,73.9,41.0,30,29.89,10.0,WSW,4.6,-,N/A,,Mostly Cloudy,240,2013-09-30 20:51:00
4:51 PM,75.0,41.0,29,29.88,10.0,South,6.9,-,N/A,,Mostly Cloudy,190,2013-09-30 21:51:00
5:51 PM,75.0,43.0,32,29.88,10.0,South,5.8,-,N/A,,Scattered Clouds,180,2013-09-30 22:51:00
6:51 PM,73.0,46.9,39,29.88,10.0,SSE,6.9,-,N/A,,Scattered Clouds,150,2013-09-30 23:51:00
7:51 PM,71.1,46.0,41,29.89,10.0,South,5.8,-,N/A,,Partly Cloudy,190,2013-10-01 00:51:00
8:51 PM,68.0,42.1,39,29.89,10.0,South,5.8,-,N/A,,Clear,170,2013-10-01 01:51:00
9:51 PM,68.0,41.2,38,29.88,10.0,South,8.1,-,N/A,,Clear,180,2013-10-01 02:51:00
10:51 PM,64.9,50.0,58,29.88,10.0,SSW,9.2,-,N/A,,Clear,200,2013-10-01 03:51:00
11:51 PM,64.0,53.6,69,29.89,10.0,SSW,6.9,-,N/A,,Clear,200,2013-10-01 04:51:00